Other Public Products
Issued by NWS Grand Forks, ND

Home | Current Version | Previous Version | Graphics & Text | Print | Product List | Glossary On
Versions: 1 2 3 4 5 6 7 8 9 10 11 12 13 14 15 16 17 18 19 20 21 22 23 24 25 26 27 28 29 30 31 32 33 34 35 36 37 38 39 40 41 42 43 44 45 46 47 48 49 50
000
FPUS83 KFGF 202110
OPUFGF
PRAIRIE TO PINES WEATHER ROUNDUP
NATIONAL WEATHER SERVICE EASTERN NORTH DAKOTA/GRAND FORKS ND
400 PM CDT MON OCT 20 2014

 **SATELLITE DATA USED TO AUGMENT SKY COVER AT AUTOMATED STATIONS**
 *****  WEATHER ACROSS EASTERN NORTH DAKOTA  *****

CITY           SKY/WX    TMP DP  RH WIND       PRES   REMARKS
GRAND FORKS    SUNNY     58  42  55 CALM      30.03F
GRAND FORKS AF SUNNY     60  43  54 VRB1      30.03F
GRAND CITY NWS   N/A     57 N/A N/A NE3         N/A
BUXTON         NOT AVBL
DEVILS LAKE    SUNNY     66  43  42 SE8       29.98F
FARGO          SUNNY     64  43  46 N6        30.03S
WAHPETON ARPT  CLEAR     64  36  34 N8        30.03R
$$

 *****  WEATHER ACROSS CENTRAL AND WESTERN NORTH DAKOTA  *****

CITY           SKY/WX    TMP DP  RH WIND       PRES   REMARKS
JAMESTOWN      SUNNY     69  38  32 S6        30.00F
BISMARCK       SUNNY     73  35  25 S17G23    29.97F
MINOT          SUNNY     72  35  25 S14       29.92F
MINOT AFB      SUNNY     71  38  29 S20G25    29.91F
GARRISON         N/A     71  41  33 S12       29.93F
WILLISTON      SUNNY     77  41  27 S15       29.84F
DICKINSON      SUNNY     73  41  31 S20G26    29.89F
HETTINGER      SUNNY     73  39  29 S14G23    29.94F
$$

 *****  OTHER OBSERVATIONS NORTHEAST NORTH DAKOTA  *****

CITY           SKY/WX    TMP DP  RH WIND       PRES   REMARKS
WALHALLA         N/A     55  45  67 SE8       30.02F
LANGDON        FAIR      66  41  39 S8        30.00F HAZE
CAVALIER       FAIR      57  43  58 SE6       30.03S
GRAFTON        FAIR      57  41  54 S5        30.03S
CANDO          FAIR      66  39  37 SE12      29.99F
FORT TOTTEN    NOT AVBL
ROLLA          FAIR      66  37  34 S14       29.99S
RUGBY          FAIR      70  37  30 S9        29.96F
 ***** THE ABOVE OBSERVATIONS ARE NON NWS ARE NOT QUALITY
        CONTROLLED AND MAY MIS-REPORT RAIN FOR SNOW...
$$

 *****  OTHER OBSERVATIONS SOUTHEAST NORTH DAKOTA *****

CITY           SKY/WX    TMP DP  RH WIND       PRES   REMARKS
COOPERSTOWN    NOT AVBL
VALLEY CITY    FAIR      66  41  39 CALM      30.02S
OAKES            N/A     68  39  34 NW3       30.02S
GWINNER        CLEAR     70  41  35 CALM      30.03S
SHEYENNE NWR     N/A     68  42  38 CALM      29.95
BUFFALO        NOT AVBL
WYNDMERE         N/A     66  41  39 NW5         N/A
 ***** THE ABOVE OBSERVATIONS ARE NON NWS ARE NOT QUALITY
       CONTROLLED AND MAY MIS-REPORT RAIN FOR SNOW...
$$

  *****  WEATHER ACROSS NORTHERN MINNESOTA  *****

CITY           SKY/WX    TMP DP  RH WIND       PRES   REMARKS
FLAG ISLAND    SUNNY     48  36  61 NE3       30.04S
WARROAD        SUNNY     48  39  71 E6        30.06S
ROSEAU         SUNNY     52  39  62 E3        30.05S
HALLOCK        SUNNY     57  43  58 E5        30.03S
THF RVR FALLS  SUNNY     54  39  58 CALM      30.05S
HALSTAD          N/A     64  39  40 N6          N/A
FOSSTON        SUNNY     59  37  44 CALM      30.04F
BAUDETTE       MOSUNNY   49  37  63 NW5       30.05F
WASKISH        CLOUDY    48  39  71 CALM      30.05S
CROOKSTON      SUNNY     55  43  62 CALM      30.05S
$$
  *****  WEATHER ACROSS CENTRAL AND WEST MINNESOTA  *****

CITY           SKY/WX    TMP DP  RH WIND       PRES   REMARKS
BEMIDJI        SUNNY     52  39  61 N7        30.03S
PARK RAPIDS    SUNNY     60  33  36 N9        30.01S
WADENA         SUNNY     61  39  44 NW9       30.01S
DETROIT LAKES  SUNNY     59  37  44 N7        30.04S
MOORHEAD       SUNNY     63  43  48 NE7       30.04S
FERGUS FALLS   SUNNY     63  36  36 N13       30.03S
ELBOW LAKE     FAIR      62  41  46 N9        30.02S
MORRIS MN      SUNNY     66  41  39 N13       30.01S
STAPLES        SUNNY     61  30  31 N8        30.01S
WHEATON        SUNNY     64  39  39 N9        30.03F
$$
  *****  WEATHER ELSEWHERE ACROSS MINNESOTA  *****

CITY           SKY/WX    TMP DP  RH WIND       PRES   REMARKS
DULUTH         CLOUDY    48  39  71 N10       30.00R
INTRNTL FALLS  CLOUDY    47  36  65 NW5       30.05R
ELY            CLOUDY    46  36  66 N3        30.01S
CLOQUET        CLOUDY    52  37  58 N12       30.01R
BRAINERD       SUNNY     55  39  54 N10       30.02R
HIBBING        CLOUDY    49  36  61 N12       30.03R
ALEXANDRIA     SUNNY     63  35  35 NW10      30.02S
SAINT CLOUD    SUNNY     65  40  39 NW9       29.99S
MINNEAPOLIS    SUNNY     63  42  46 NW8       29.98R
$$

  *****  WEATHER ACROSS SOUTH DAKOTA  *****

CITY           SKY/WX    TMP DP  RH WIND       PRES   REMARKS
SIOUX FALLS    MOSUNNY   70  40  33 NW6       30.04S
BROOKINGS      NOT AVBL
WATERTOWN      SUNNY     69  37  30 NW6       30.04S
HURON          SUNNY     71  33  24 VRB3      30.03F
SISSETON         N/A     70  40  33 N10G17    30.01F
ABERDEEN       SUNNY     72  36  26 VRB5      30.03F
MITCHELL       SUNNY     72  35  25 CALM      30.04F
PIERRE         SUNNY     75  38  26 SE17      29.97F
MOBRIDGE       SUNNY     73  35  25 S14       29.96F
RAPID CITY     SUNNY     76  44  32 S18G30    29.93F
$$

  *****  SOME WEATHER IN NEARBY STATES *****

CITY           SKY/WX    TMP DP  RH WIND       PRES   REMARKS
GLASGOW MT     SUNNY     72  43  35 SE12      29.79F
GREAT FALLS MT SUNNY     78  30  17 SW17      29.77F
CHEYENNE WY    SUNNY     70  32  24 S17       30.12F
SCOTTSBLUFF NE SUNNY     80  51  36 S18G24    30.00F
OMAHA NE       SUNNY     73  39  29 VRB6      30.04F
DES MOINES IA  SUNNY     72  38  29 N12       30.00S
DAVENPORT IA   MOSUNNY   68  41  37 NW17G25   29.93S
CHICAGO IL     PTSUNNY   59  48  67 NE13      29.87R
EAU CLAIRE WI  CLOUDY    57  39  51 N10       29.97R
LA CROSSE WI   SUNNY     65  42  43 N13       29.93R
$$

  *****  SOME NATIONAL WEATHER *****

CITY           SKY/WX    TMP DP  RH WIND       PRES   REMARKS
LA GUARDIA NY  PTSUNNY   60  38  43 S8        29.97F
RALEIGH NC     MOSUNNY   70  45  40 SW13      29.99F
ATLANTA GA     MOSUNNY   72  50  45 W5        30.00F
NEW ORLEANS LA MOSUNNY   77  54  44 NE6       29.99F
OKLAHOMA CITY  MOSUNNY   81  59  47 CALM      30.01F
ALBUQUERQUE NM PTSUNNY   70  42  36 SW7       30.12F
SALT LAKE CITY MOSUNNY   78  34  20 S13       29.95F
LOS ANGELES CA MOSUNNY   72  62  71 W12       29.90F
BOISE ID       SUNNY     75  36  24 NW7       29.78F
SEATTLE WA     LGT RAIN  59  54  83 S5        29.77R
$$

*** WEATHER ACROSS MANITOBA...SASKATCHEWAN AND ONTARIO ***
                ***ONTARIO***

CITY           SKY/WX    TMP DP  RH WIND       PRES   REMARKS
GERALDTON      CLOUDY    36  34  93 NE7       30.00R
THUNDER BAY    NOT AVBL
SIOUX LOOKOUT  CLOUDY    41  34  75 NE3       30.07R
TORONTO        LGT RAIN  52  48  87 E5        29.78S
BIG TROUT LK   CLOUDY    34  32  93 NW7       30.14R
PICKLE LAKE    DRIZZLE   37  32  81 N5        30.09R
DRYDEN         CLOUDY    43  34  70 N5        30.06R
KENORA         MOSUNNY   46  36  66 VRB2      30.06R
$$
                *** MANITOBA***

CITY           SKY/WX    TMP DP  RH WIND       PRES   REMARKS
BRANDON        MOSUNNY   64  45  48 SE13      29.96F
DAUPHIN        SUNNY     52  45  76 SE14G20   29.93F
ISLAND LAKE    NOT AVBL
PILOT MOUND      N/A     66  39  37 S13         N/A
THE PAS        PTSUNNY   46  41  81 SE24G30   29.85F
THOMPSON       CLOUDY    36  36 100 SE9       30.03
WINNIPEG       NOT AVBL
LYNN LAKE      CLOUDY    37  36  93 SE14G20   29.85F
GILLAM         CLOUDY    37  34  87 S6        30.09S
$$
                ***SASKATCHEWAN***

CITY           SKY/WX    TMP DP  RH WIND       PRES   REMARKS
ESTEVAN        MOSUNNY   73  41  31 S15G23    29.85F
KINDERSLEY     SUNNY     73  36  25 SW12      29.65F
LLOYDMINSTER   MOSUNNY   70  36  28 S8        29.58F
PRINCE ALBERT  MOSUNNY   64  43  45 S10G17    29.66F
REGINA         MOSUNNY   75  45  33 S16G22    29.77F
YORKTON        SUNNY     70  41  35 SE15G22   29.81F


USA.gov is the U.S. government's official web portal to all federal, state and local government web resources and services.